This demonstration page uses our WeatherBlox Daily Observations layout. Learn more.

Left ArrowRight Arrow

Hourly Observations for September 30, 2020

Temp ( °F °C ) Dew Point ( °F °C ) Humidity (%) Winds ( mph kmh ) Pressure ( in mb ) Visibility ( mi km ) Precip ( " mm )
12:52 am 00:52 Mostly Cloudy 58 14.4 49 9.4 72 72 ESE 5 7 29.78 1009 10 16 0.00 0.00
1:52 am 01:52 Mostly Cloudy 58 14.4 48 8.9 70 70 Calm 29.77 1008 10 16 0.00 0.00
2:52 am 02:52 Mostly Cloudy 57 13.9 48 8.9 72 72 SSE 6 9 29.76 1008 10 16 0.00 0.00
3:52 am 03:52 Mostly Cloudy 57 13.9 48 8.9 72 72 SE 7 11 29.73 1007 10 16 0.00 0.00
4:52 am 04:52 Mostly Cloudy 55 12.8 47 8.3 74 74 SE 9 15 29.70 1006 10 16 0.00 0.00
5:52 am 05:52 Mostly Clear 58 14.4 45 7.2 62 62 WNW 13 20 29.73 1007 10 16 0.00 0.00
6:52 am 06:52 Mostly Clear 58 14.4 44 6.7 60 60 NNW 12 19 29.79 1009 10 16 0.00 0.00
7:52 am 07:52 Partly Cloudy 60 15.6 44 6.7 56 56 NNW 14 22 29.85 1011 10 16 0.00 0.00
8:52 am 08:52 Partly Cloudy 62 16.7 44 6.7 52 52 NNW 13 20 29.89 1012 10 16 0.00 0.00
9:52 am 09:52 Partly Cloudy 65 18.3 39 3.9 39 39 NNW 18 30 29.93 1014 10 16 0.00 0.00
10:52 am 10:52 Partly Cloudy 67 19.4 36 2.2 32 32 NNW 21 33 29.97 1015 10 16 0.00 0.00
11:52 am 11:52 Partly Cloudy 68 20 36 2.2 31 31 NW 21 33 30.00 1016 10 16 0.00 0.00
12:52 pm 12:52 Partly Cloudy 69 20.6 36 2.2 30 30 NW 20 31 30.01 1016 10 16 0.00 0.00
1:52 pm 13:52 Partly Cloudy 71 21.7 34 1.1 26 26 NNW 24 39 30.01 1016 10 16 0.00 0.00
2:52 pm 14:52 Mostly Sunny 70 21.1 31 -0.6 23 23 NW 25 41 30.01 1016 10 16 0.00 0.00
3:52 pm 15:52 Mostly Sunny 71 21.7 28 -2.2 20 20 NNW 24 39 30.01 1016 10 16 0.00 0.00
4:52 pm 16:52 Mostly Sunny 70 21.1 25 -3.9 18 18 NW 22 35 30.01 1016 10 16 0.00 0.00
5:52 pm 17:52 Mostly Sunny 68 20 27 -2.8 21 21 NW 17 28 30.03 1017 10 16 0.00 0.00
6:52 pm 18:52 Mostly Sunny 63 17.2 29 -1.7 28 28 NW 12 19 30.04 1017 10 16 0.00 0.00
7:52 pm 19:52 Mostly Clear 61 16.1 28 -2.2 29 29 WNW 10 17 30.06 1018 10 16 0.00 0.00
8:52 pm 20:52 Mostly Clear 60 15.6 29 -1.7 31 31 WNW 9 15 30.08 1019 10 16 0.00 0.00
9:52 pm 21:52 Mostly Clear 58 14.4 29 -1.7 33 33 WNW 10 17 30.09 1019 10 16 0.00 0.00
10:52 pm 22:52 Mostly Clear 57 13.9 29 -1.7 34 34 WNW 9 15 30.09 1019 10 16 0.00 0.00
11:52 pm 23:52 Mostly Clear 53 11.7 30 -1.1 41 41 WNW 10 17 30.11 1020 10 16 0.00 0.00

Powered by AerisWeather